パンスターズ彗星

C/2021 B2 ( PanSTARRS )

English version
Home page
Updated on July 31, 2021

---------------------------------------------------------------------

・ プロフィール

発見日 2021年1月17日
発見光度 19.9等
発見者 Pan-STARRS 1 telescope (Haleakala)

・ 写真集

・ 軌道要素

Epoch 2021 Apr. 16.0 TT = JDT 2459320.5
T 2021 May 4.26973 TT                                   Rudenko
q   2.5131114            (2000.0)            P               Q
z  +0.0029546      Peri.  334.97107     -0.17390836     -0.82915225
 +/-0.0000162      Node   120.55543     +0.97501271     -0.22070504
e   0.9925748      Incl.   38.09415     +0.13822479     +0.51361058
From 79 observations 2020 Dec. 24-2021 Apr. 6, mean residual 0".4.

・ 光度変化

        m1 = 13.0 + 5 logΔ + 10.0 log r

---------------------------------------------------------------------

軌道要素はM.P.E.C. 2021-O56に掲載されたものです。
光度グラフはComet for Windowsで作成したものです。

---------------------------------------------------------------------

Copyright(C) Seiichi Yoshida (comet@aerith.net). All rights reserved.